Waarnemingen

Advertentie
Mijn weer
Bierset/Liege, België (6478): temperatuur & dauwpunt: 19.02.2018 10:00:00 - 25.02.2018 10:00:00 (CET)Bierset/Liege, België (6478): windsnelheid & windstoten: 19.02.2018 10:00:00 - 25.02.2018 10:00:00 (CET)Bierset/Liege, België (6478): windrichting: 19.02.2018 10:00:00 - 25.02.2018 10:00:00 (CET)Bierset/Liege, België (6478): luchtdruk: 19.02.2018 10:00:00 - 25.02.2018 10:00:00 (CET)Bierset/Liege, België (6478): zicht: 19.02.2018 10:00:00 - 25.02.2018 10:00:00 (CET)
Datum & Tijd tt [°C] td [°C] ff [km/u] ff [kn] fx [km/u] fx [kn] dd ppp [hPa] vv [km]
25.02.2018 10:00:00 -3,8 -14,4 21 11 - - O 1028,5 10
25.02.2018 09:00:00 -5,1 -13,4 16 9 32 18 O 1028,0 10
25.02.2018 08:00:00 -5,7 -13,4 18 10 40 21 O 1027,7 10
25.02.2018 07:00:00 -5,5 -12,5 16 9 - - O 1027,5 10
25.02.2018 06:00:00 -5,2 -12,1 18 10 32 18 ONO 1026,9 10
25.02.2018 05:00:00 -4,6 -12,6 16 9 32 18 O 1026,4 10
25.02.2018 04:00:00 -4,1 -12,4 18 10 - - O 1026,1 10
25.02.2018 03:00:00 -3,7 -12,4 21 11 36 19 ONO 1026,2 10
25.02.2018 02:00:00 -3,1 -12,6 21 11 36 19 O 1025,9 10
25.02.2018 01:00:00 -2,7 -12,5 18 10 - - O 1026,0 10
25.02.2018 00:00:00 -2,1 -11,9 21 11 47 25 O 1025,5 10
24.02.2018 23:00:00 -1,7 -10,5 18 10 47 25 O 1025,3 10
24.02.2018 22:00:00 -1,3 -9,7 24 13 - - O 1024,9 10
24.02.2018 21:00:00 -1,0 -9,9 26 14 47 25 O 1024,6 10
24.02.2018 20:00:00 -0,6 -10,1 24 13 47 25 O 1024,1 10
24.02.2018 19:00:00 0,4 -9,4 26 14 - - O 1023,4 10
24.02.2018 18:00:00 2,1 -7,9 29 16 47 25 ONO 1022,6 10
24.02.2018 17:00:00 3,6 -9,0 26 14 58 31 O 1022,1 10
24.02.2018 16:00:00 4,8 -10,5 29 16 - - ONO 1021,8 10
24.02.2018 15:00:00 4,7 -11,3 28 15 54 29 ONO 1021,7 10
24.02.2018 14:00:00 3,7 -12,8 29 16 58 31 ONO 1021,8 10
24.02.2018 13:00:00 2,5 -14,2 29 16 - - ONO 1022,1 10
24.02.2018 12:00:00 1,7 -15,0 28 15 50 27 ONO 1022,4 10
24.02.2018 11:00:00 -0,1 -13,7 24 13 47 25 ONO 1022,2 10
24.02.2018 10:00:00 -2,0 -13,6 24 13 - - ONO 1022,4 10
24.02.2018 09:00:00 -3,6 -13,4 24 13 43 23 ONO 1022,4 10
24.02.2018 08:00:00 -4,9 -12,6 21 11 36 19 ONO 1022,1 10
24.02.2018 07:00:00 -5,0 -12,0 21 11 - - ONO 1021,4 10
24.02.2018 06:00:00 -5,0 -11,2 18 10 32 18 ONO 1021,4 10
24.02.2018 05:00:00 -4,4 -11,2 15 8 32 18 ONO 1021,3 10
24.02.2018 04:00:00 -4,0 -11,2 22 12 - - ONO 1020,8 10
24.02.2018 03:00:00 -4,1 -11,6 16 9 29 16 NO 1020,9 10
24.02.2018 02:00:00 -3,0 -12,2 21 11 29 16 ONO 1020,5 10
24.02.2018 01:00:00 -2,6 -12,1 13 7 - - ONO 1020,5 10
24.02.2018 00:00:00 -2,3 -11,3 15 8 40 21 ONO 1020,2 10
23.02.2018 23:00:00 -1,6 -10,4 15 8 29 16 ONO 1020,0 10
23.02.2018 22:00:00 -1,4 -9,4 15 8 - - O 1020,3 10
23.02.2018 21:00:00 -2,1 -7,7 13 7 32 18 NO 1020,3 10
23.02.2018 20:00:00 -0,8 -7,8 22 12 36 19 NO 1019,9 30
23.02.2018 19:00:00 0,1 -8,2 18 10 - - NO 1019,8 10
23.02.2018 18:00:00 1,4 -10,6 18 10 43 23 ONO 1019,6 10
23.02.2018 17:00:00 1,8 -10,3 26 14 47 25 ONO 1019,3 10
23.02.2018 16:00:00 2,1 -9,5 29 16 - - NO 1019,5 10
23.02.2018 15:00:00 1,8 -10,4 24 13 43 23 ONO 1019,9 10
23.02.2018 14:00:00 1,4 -9,8 24 13 40 21 ONO 1020,4 10
23.02.2018 13:00:00 0,9 -10,0 22 12 - - O 1020,9 10
23.02.2018 12:00:00 -0,1 -10,2 28 15 50 27 ONO 1021,3 10
23.02.2018 11:00:00 -0,8 -9,6 26 14 47 25 ONO 1021,6 10
23.02.2018 10:00:00 -1,6 -7,9 16 9 - - ONO 1021,5 10
23.02.2018 09:00:00 -3,1 -6,0 13 7 25 14 ONO 1021,7 10
23.02.2018 08:00:00 -4,8 -6,7 9 5 25 14 NO 1022,0 10
23.02.2018 07:00:00 -4,8 -6,7 11 6 - - NO 1021,8 10
23.02.2018 06:00:00 -4,1 -6,7 15 8 40 21 NO 1021,7 10
23.02.2018 05:00:00 -4,3 -7,2 16 9 29 16 NO 1021,6 10
23.02.2018 04:00:00 -4,3 -6,9 13 7 - - NNO 1021,7 10
23.02.2018 03:00:00 -3,3 -6,9 13 7 18 10 NO 1021,6 10
23.02.2018 02:00:00 -3,7 -6,6 13 7 40 21 NO 1022,0 10
23.02.2018 01:00:00 -2,5 -6,3 13 7 - - ONO 1022,0 10
23.02.2018 00:00:00 -2,1 -5,7 13 7 25 14 ONO 1022,2 10
22.02.2018 23:00:00 -1,5 -5,6 18 10 32 18 ONO 1022,2 10
22.02.2018 22:00:00 -1,1 -5,2 24 13 - - NO 1022,1 10
22.02.2018 21:00:00 -0,4 -5,3 28 15 43 23 NO 1021,8 10
22.02.2018 20:00:00 0,2 -5,8 26 14 32 18 NO 1021,7 10
22.02.2018 19:00:00 0,3 -5,5 21 11 - - NO 1021,3 10
22.02.2018 18:00:00 1,3 -6,1 22 12 40 21 NO 1021,1 10
22.02.2018 17:00:00 2,3 -6,6 28 15 40 21 NO 1021,0 10
22.02.2018 16:00:00 2,8 -6,5 28 15 - - NO 1021,0 10
22.02.2018 15:00:00 2,6 -5,8 29 16 54 29 NO 1021,5 10
22.02.2018 14:00:00 2,6 -5,7 31 17 47 25 NO 1022,4 10
22.02.2018 13:00:00 2,2 -6,2 31 17 - - NO 1022,7 10
22.02.2018 12:00:00 1,7 -6,2 26 14 40 21 ONO 1023,1 10
22.02.2018 11:00:00 0,6 -5,9 21 11 40 21 ONO 1023,2 8
22.02.2018 10:00:00 -1,0 -4,9 18 10 - - ONO 1023,4 8
22.02.2018 09:00:00 -2,5 -5,4 16 9 29 16 ONO 1023,5 8
22.02.2018 08:00:00 -3,6 -5,8 16 9 29 16 ONO 1023,3 8
22.02.2018 07:00:00 -3,8 -5,8 16 9 - - NO 1023,1 8
22.02.2018 06:00:00 -3,3 -5,4 16 9 36 19 NO 1022,8 7
22.02.2018 05:00:00 -3,6 -5,3 11 6 18 10 NO 1022,7 7
22.02.2018 04:00:00 -3,5 -5,4 11 6 - - NO 1023,0 7
22.02.2018 03:00:00 -3,2 -5,2 11 6 18 10 NO 1023,3 6
22.02.2018 02:00:00 -3,2 -5,2 9 5 25 14 NO 1023,5 7
22.02.2018 01:00:00 -2,6 -4,8 11 6 - - NNO 1023,8 7
22.02.2018 00:00:00 -2,3 -4,8 13 7 18 10 NO 1023,9 8
21.02.2018 23:00:00 -2,1 -4,4 9 5 14 8 NNO 1024,1 8
21.02.2018 22:00:00 -2,0 -4,3 9 5 - - NNO 1024,2 9
21.02.2018 21:00:00 -1,5 -4,0 9 5 14 8 NNO 1024,1 9
21.02.2018 20:00:00 -1,0 -4,2 8 4 11 6 NNO 1024,1 10
21.02.2018 19:00:00 -0,3 -3,9 9 5 - - NNO 1024,1 10
21.02.2018 18:00:00 1,2 -4,0 11 6 25 14 NNO 1023,7 10
21.02.2018 17:00:00 2,6 -4,0 18 10 29 16 NNO 1023,5 10
21.02.2018 16:00:00 3,3 -3,0 16 9 - - NNO 1023,5 10
21.02.2018 15:00:00 3,3 -3,3 15 8 29 16 NNO 1024,0 8
21.02.2018 14:00:00 3,0 -4,1 18 10 29 16 NO 1024,7 8
21.02.2018 13:00:00 2,6 -3,3 18 10 - - NNO 1025,1 8
21.02.2018 12:00:00 1,4 -3,1 13 7 22 12 NNO 1025,4 6
21.02.2018 11:00:00 0,3 -2,7 13 7 22 12 NO 1025,3 6
21.02.2018 10:00:00 -1,6 -3,8 11 6 - - NO 1025,6 4,3
21.02.2018 09:00:00 -2,9 -4,3 9 5 11 6 NNO 1025,4 3,1
21.02.2018 08:00:00 -4,1 -4,9 9 5 14 8 NNO 1025,3 3,4
21.02.2018 07:00:00 -2,9 -4,3 9 5 - - ONO 1024,5 4,0
21.02.2018 06:00:00 -2,8 -4,3 13 7 47 25 ONO 1024,5 4,0
21.02.2018 05:00:00 -2,8 -4,1 11 6 22 12 NNO 1024,2 4,0
21.02.2018 04:00:00 -2,6 -3,6 11 6 - - N 1023,9 4,0
21.02.2018 03:00:00 -2,5 -4,0 13 7 18 10 NO 1023,3 4,5
21.02.2018 02:00:00 -2,2 -3,6 9 5 14 8 NNO 1023,6 5
21.02.2018 01:00:00 -1,5 -3,3 11 6 - - N 1023,3 7
21.02.2018 00:00:00 -0,9 -3,4 13 7 18 10 NO 1022,4 7
20.02.2018 23:00:00 -0,8 -3,0 11 6 14 8 NO 1021,9 7
20.02.2018 22:00:00 -0,6 -2,8 8 4 - - NO 1021,5 7
20.02.2018 21:00:00 0,1 -1,9 9 5 14 8 NNO 1020,9 7
20.02.2018 20:00:00 1,4 -1,4 9 5 14 8 NNO 1020,4 8
20.02.2018 19:00:00 1,9 -1,4 9 5 - - NNO 1019,8 8
20.02.2018 18:00:00 2,7 -1,6 11 6 18 10 NNO 1019,2 7
20.02.2018 17:00:00 3,5 -1,3 9 5 18 10 N 1018,5 7
20.02.2018 16:00:00 3,7 -1,8 9 5 - - N 1018,2 9
20.02.2018 15:00:00 3,7 -3,0 9 5 18 10 N 1018,4 10
20.02.2018 14:00:00 4,1 -1,6 13 7 18 10 N 1018,8 10
20.02.2018 13:00:00 3,6 -1,2 8 4 - - NNO 1018,3 9
20.02.2018 12:00:00 3,0 -1,0 5 3 11 6 N 1018,9 7
20.02.2018 11:00:00 1,7 -1,1 8 4 11 6 N 1018,9 7
20.02.2018 10:00:00 0,6 -1,2 8 4 - - W 1018,8 6
20.02.2018 09:00:00 0,6 -2,1 5 3 25 14 - 1018,3 7
20.02.2018 08:00:00 0,3 -2,0 4 2 14 8 O 1018,1 7
20.02.2018 07:00:00 0,1 -2,2 4 2 - - - 1018,0 7
20.02.2018 06:00:00 -0,6 -2,0 5 3 7 4 NO 1018,3 7
20.02.2018 05:00:00 0,1 -1,8 5 3 7 4 N 1018,1 8
20.02.2018 04:00:00 -0,1 -2,9 2 1 - - - 1018,1 9
20.02.2018 03:00:00 -0,4 -2,4 2 1 14 8 - 1017,8 9
20.02.2018 02:00:00 0,8 -2,2 2 1 11 6 - 1017,7 9
20.02.2018 01:00:00 1,4 -2,1 5 3 - - OZO 1017,8 10
20.02.2018 00:00:00 1,9 -2,7 4 2 11 6 - 1017,8 10
19.02.2018 23:00:00 1,7 -2,6 4 2 18 10 ZO 1017,8 10
19.02.2018 22:00:00 2,0 -2,5 4 2 - - - 1018,0 10
19.02.2018 21:00:00 2,1 -2,1 8 4 14 8 Z 1018,1 10
19.02.2018 20:00:00 2,3 -2,2 8 4 11 6 Z 1018,1 10
19.02.2018 19:00:00 2,3 -2,3 8 4 - - Z 1018,4 10
19.02.2018 18:00:00 2,6 -2,3 8 4 14 8 Z 1018,2 10
19.02.2018 17:00:00 2,8 -2,4 9 5 14 8 Z 1018,3 10
19.02.2018 16:00:00 2,8 -2,2 9 5 - - ZZW 1018,7 10
19.02.2018 15:00:00 2,6 -2,2 13 7 22 12 ZZW 1019,0 10
19.02.2018 14:00:00 2,2 -2,6 14 8 22 12 Z 1019,8 17
19.02.2018 13:00:00 1,5 -2,9 16 9 - - Z 1020,0 10
19.02.2018 12:00:00 1,0 -2,8 18 10 29 16 Z 1020,5 10
19.02.2018 11:00:00 0,3 -3,0 15 8 29 16 Z 1020,8 10
19.02.2018 10:00:00 -0,3 -3,2 18 10 - - Z 1021,0 10

tt = temperatuur
td = dauwpunt
ff = windsnelheid
fx = windstoten
dd = windrichting
ppp = luchtdruk
vv = zicht

Weerstations in de omgeving